Location: *
(43.1105°S, 86.6053°E)
Time: 12:29:00
(UTC+00:00)

Daily predictions for brighter satellites

Satellite Brightness Start Highest point End
(mag) Time Altitude Azimuth Time Altitude Azimuth Time Altitude Azimuth
CZ-4B R/B 3.9 13:57:50 10° SSE 14:02:50 34° E 14:07:51 10° NNE
Cosmos 1461 3.7 14:04:23 10° N 14:07:31 24° ENE 14:10:42 10° ESE
ATLAS 5 CENTAUR R/B 3.2 14:03:02 10° N 14:10:12 46° ENE 14:17:04 10° SE
YAOGAN 1 3.0 14:07:53 10° S 14:12:15 70° WSW 14:16:34 10° NNW
BlueWalker 3 3.1 14:12:54 10° WSW 14:16:31 36° NW 14:20:07 10° NNE
Cosmos 2369 Rocket 3.7 14:13:00 10° S 14:17:35 24° SE 14:22:06 10° ENE
Okean O Rocket 2.5 14:14:02 10° SSE 14:18:02 31° E 14:21:56 10° NNE
Cosmos 1943 Rocket 2.3 14:13:08 10° SSW 14:18:52 88° ESE 14:24:33 10° NNE
Lacrosse 5 rocket 2.5 14:15:33 10° WNW 14:19:04 42° SW 14:22:33 10° SE
USA 186 2.5 14:24:13 10° SSE 14:27:09 33° E 14:30:03 10° NNE
Cosmos 614 Rocket 4.2 14:22:42 10° NNW 14:27:50 74° WSW 14:32:59 10° SSE
OAO 3 Rocket 4.4 14:25:19 10° NW 14:28:54 22° NNE 14:32:03 12° ENE
Okean 1 3.7 14:25:40 10° SSW 14:29:38 64° W 14:33:35 10° N
Cosmos 2278 Rocket 3.6 14:29:22 10° SW 14:34:31 35° WNW 14:39:36 10° NNW
Cosmos 2237 Rocket 4.0 14:37:47 10° WNW 14:43:00 36° WSW 14:48:17 10° S
MOS 1-B 4.4 14:37:56 10° SSE 14:43:48 66° ENE 14:49:35 10° N
CZ-4C R/B 2.2 14:38:54 10° SSW 14:44:20 56° SE 14:47:48 16° ENE
Cosmos 1328 Rocket 3.5 14:41:07 10° S 14:45:33 82° E 14:49:34 12° N
Resurs 1-3 3.6 14:41:07 10° SSE 14:45:35 89° W 14:49:58 10° NNW
NOSS 3-2 (C) 4.2 14:40:25 10° SSW 14:46:38 42° SE 14:51:15 13° ENE
Cosmos 1151 Rocket 4.2 14:43:33 10° SSW 14:47:43 42° W 14:51:48 10° NNW
Cosmos 2297 4.1 14:42:40 10° SSW 14:48:22 55° ESE 14:52:45 17° NE
Magion 5 Rocket2 4.2 14:41:49 10° NNW 14:50:41 70° NE 14:55:56 10° SE
Resurs 01 Rocket 2.0 14:48:44 10° SSE 14:53:04 45° E 14:56:33 15° NNE
Meteor 1-5 Rocket 4.4 14:49:34 10° N 14:55:35 86° W 15:01:39 10° S
Meteor 2-4 Rocket 3.7 14:50:21 10° S 14:56:06 89° W 15:01:09 13° N
FAST 4.4 14:53:48 12° N 14:56:30 82° E 14:59:12 10° S
Cosmos 1766 Rocket 4.0 14:53:01 10° NNW 14:57:20 65° W 15:01:44 10° S
H-2A R/B 4.2 14:55:33 10° E 14:57:42 14° ESE 14:59:52 10° SSE
Okean-O 3.3 14:53:39 10° SSE 14:57:49 36° E 15:00:26 19° NNE
Landsat 4 3.5 14:55:32 10° SSE 14:59:13 74° ENE 15:02:35 12° N
Cosmos 1626 3.8 14:57:24 10° SSE 14:59:47 17° ESE 15:00:47 15° E
Cosmos 1140 Rocket 3.6 14:55:01 10° N 14:59:59 52° ENE 15:05:01 10° SSE
CZ-4 R/B 2.7 14:58:24 10° S 15:02:08 40° WSW 15:05:52 10° NW
Cosmos 1271 Rocket 2.6 14:58:16 10° N 15:02:10 83° E 15:06:04 10° SSE
Cosmos 2251 Rocket 3.9 14:58:50 12° N 15:03:34 45° ENE 15:08:42 10° SSE
Cosmos 1408 Rocket 3.8 15:01:48 19° NNE 15:04:43 50° E 15:09:00 10° SSE
S3M 4.1 15:00:17 10° N 15:06:33 68° E 15:12:57 10° SSE
Meteor 1-14 Rocket 4.3 15:05:04 12° N 15:10:17 65° E 15:16:07 10° SSE
Cosmos 1553 Rocket 4.4 15:06:27 10° NNW 15:12:31 62° W 15:18:38 10° S
SPOT 5 4.1 15:11:40 10° SE 15:14:58 20° E 15:15:37 20° ENE
NOSS 3-2 (A) 3.4 15:10:02 10° SW 15:16:17 68° WNW 15:19:45 23° NNE
Cosmos 1709 Rocket 4.2 15:11:00 10° S 15:17:17 58° ESE 15:21:13 23° NNE
Cosmos 1743 2.6 15:16:07 24° N 15:18:20 71° E 15:22:09 10° SSE
Atlas Centaur 2 3.8 15:16:04 10° NNW 15:19:13 16° N 15:19:13 16° N
Cosmos 1603 4.5 15:18:28 24° NE 15:20:38 31° ENE 15:25:33 10° SE
CSL-04 Rocket 3.7 15:15:42 10° SSE 15:21:13 86° WSW 15:26:44 10° NNW
SPOT 1/Viking Rocket 3.9 15:17:15 10° S 15:22:26 68° WSW 15:27:35 10° NNW
Cosmos 407 Rocket 3.5 15:20:43 15° N 15:24:55 64° ENE 15:30:07 10° SSE
Cosmos 1805 Rocket 4.0 15:23:43 30° NE 15:25:24 44° E 15:29:35 10° SSE
Cosmos 1656 Rocket 3.6 15:22:02 10° SSW 15:27:35 86° ESE 15:30:36 28° NNE
Okean 3 Rocket 4.5 15:24:05 10° NNW 15:28:32 50° WSW 15:33:01 10° S
Cosmos 1536 3.2 15:29:03 35° NE 15:30:07 44° E 15:33:56 10° SSE
ADEOS Rocket 3.6 15:26:01 10° S 15:32:56 63° WSW 15:39:04 10° NNW
USA 238 DEB 4.0 15:26:39 10° SSW 15:33:22 56° SE 15:37:16 23° ENE
USA 238 4.0 15:26:40 10° SSW 15:33:24 55° SE 15:37:20 23° ENE
Cosmos 1743 Rocket 3.6 15:32:00 33° NNE 15:33:45 57° E 15:38:04 10° SSE
SL-16 R/B 3.4 15:28:41 10° NW 15:34:05 44° WSW 15:39:34 10° SSE
IRS-1C Rocket 4.2 15:32:19 10° SSE 15:37:36 57° E 15:40:14 28° NNE
Cosmos 1745 Rocket 4.3 15:32:10 10° SSW 15:38:33 67° W 15:43:18 18° N
CENTAUR R/B 3.2 15:34:27 10° SW 15:39:02 31° WNW 15:41:41 18° NNW
GEOS 3 Rocket 3.6 15:39:03 31° NNE 15:41:30 73° NW 15:46:35 10° SW
Cosmos 1726 3.8 15:44:15 18° ESE 15:44:15 18° ESE 15:46:01 10° SE
Cosmos 1340 Rocket 3.9 15:41:06 10° S 15:44:46 31° ESE 15:45:29 29° E
Cosmos 2315 Rocket 4.0 15:43:25 20° N 15:47:58 90° W 15:54:22 10° S
MOS 1 4.2 15:42:43 10° SSE 15:48:28 72° ENE 15:51:42 27° N
Iridium 4 Rocket 3.8 15:45:11 28° N 15:48:29 77° E 15:54:16 10° S
Cosmos 1190 Rocket 4.0 15:47:23 31° N 15:49:47 61° ENE 15:54:59 10° SSE
CARTOSAT-1 4.3 15:47:17 10° S 15:51:32 52° WSW 15:54:50 16° NW
Cosmos 1943 3.1 15:47:38 16° NNW 15:52:18 83° ENE 15:58:05 10° SSE
Okean O Rocket 3.7 15:50:25 10° S 15:54:12 27° WSW 15:57:55 10° NW
ATLAS 5 CENTAUR R/B 3.8 15:47:17 10° WNW 15:54:39 50° SW 16:01:28 10° SSE
Terra 2.7 15:50:41 10° SSE 15:54:56 31° E 15:55:21 30° ENE
Lacrosse 5 rocket 4.4 15:56:50 10° SW 15:58:26 12° SSW 16:00:04 10° S
Cosmos 1500 Rocket 4.1 15:57:47 24° NNW 16:00:24 58° W 16:04:53 10° S
Aureole 3 3.8 15:56:24 10° S 16:00:47 76° E 16:02:29 42° NNE
Cosmos 2369 Rocket 2.5 15:56:25 10° SSW 16:02:00 58° WNW 16:04:27 32° N
Cosmos 2228 Rocket 3.4 15:58:53 10° S 16:03:25 54° ESE 16:04:25 45° ENE
Meteor 1-11 Rocket 3.6 16:01:15 30° N 16:04:05 87° ENE 16:09:49 10° S
Cosmos 44 3.1 16:05:10 52° NE 16:05:24 53° ENE 16:09:38 10° SE
NOSS 3-4 (C) 4.1 15:57:14 10° NNW 16:05:52 81° ENE 16:14:04 10° SE
NOSS 3-4 (A) 4.1 15:57:12 10° NNW 16:05:54 81° ENE 16:14:04 10° SE
Cosmos 1674 2.6 16:02:16 10° S 16:05:55 60° E 16:06:01 60° E
Cosmos 2263 4.2 16:01:19 10° SSW 16:06:58 72° WNW 16:09:07 38° N
USA 290 3.6 16:04:11 10° S 16:06:52 29° SE 16:06:52 29° SE
ERS-1 Rocket 3.3 16:03:18 10° SSE 16:08:15 50° E 16:09:16 43° NE
KORONAS-FOTON 3.8 16:04:34 10° S 16:08:20 63° E 16:08:32 61° E
Lacrosse 4 Rocket 2.0 16:23:09 41° ESE 16:23:09 41° ESE 16:26:14 10° SE
Cosmos 1633 Rocket 3.2 16:23:31 54° ENE 16:23:43 55° E 16:28:04 10° SSE
Cosmos 2154 Rocket 4.4 16:17:41 10° S 16:23:55 52° ESE 16:26:02 37° NE
Cosmos 2074 Rocket 4.0 16:21:11 10° S 16:27:30 71° E 16:29:37 43° NNE
Meteor 2-9 Rocket 4.2 16:25:37 41° N 16:27:45 90° WNW 16:33:38 10° S
Resurs 01 Rocket 4.1 16:25:58 10° SSW 16:29:10 19° WSW 16:32:20 10° WNW
CZ-4C R/B 3.6 16:28:45 10° WSW 16:31:55 17° WNW 16:32:55 16° NW
BREEZE-M TANK 3.8 16:28:01 10° WSW 16:32:14 58° NNW 16:36:26 31° NE
H-2A R/B 2.1 16:32:21 57° NW 16:32:54 64° WNW 16:37:15 10° SSW
Sich 1 4.3 16:31:02 23° WNW 16:32:57 35° WSW 16:36:56 10° S
Cosmos 1626 3.6 16:31:03 10° SSW 16:34:01 26° W 16:34:18 26° W
MetOp-A 4.0 16:29:52 10° SSE 16:35:11 73° ENE 16:36:21 54° NNE
SPOT 3 Rocket 3.5 16:30:29 10° SSE 16:35:45 73° ENE 16:36:51 55° NNE
Cosmos 468 Rocket 3.9 16:30:39 10° SSW 16:35:52 85° ESE 16:36:55 58° NNE
NOSS 3-2 (C) 4.1 16:31:49 10° SW 16:37:21 36° WNW 16:38:40 31° NW
Cosmos 1842 4.2 16:34:57 10° SSW 16:38:31 36° W 16:38:49 36° WNW
USA 245 3.6 16:37:49 10° S 16:40:24 52° SW 16:40:24 52° SW
Spot 2 Rocket 3.4 16:35:52 10° SSE 16:41:04 83° ENE 16:42:11 56° N
Cosmos 676 Rocket 4.0 16:40:09 44° NNW 16:41:52 79° WSW 16:47:08 10° SSE
Cosmos 2084 Rocket 4.4 16:43:14 20° WNW 16:46:01 49° SW 16:50:31 10° SSE
Cosmos 1733 3.4 16:47:33 67° S 16:47:33 67° S 16:50:52 10° S
Cosmos 1763 Rocket 3.8 16:42:24 10° SSW 16:47:23 54° WNW 16:48:16 47° NW
Cosmos 1666 Rocket 3.8 16:47:45 56° NW 16:48:28 65° W 16:52:59 10° S
Cosmos 841 Rocket 3.8 16:44:05 10° SSW 16:49:15 53° ESE 16:50:15 46° ENE
Cosmos 1707 3.6 16:45:46 10° SSW 16:49:18 40° W 16:49:18 40° W
Ariane Rocket 3.2 16:44:23 10° S 16:49:33 70° WSW 16:51:05 45° NW
Cosmos 1975 3.0 16:52:05 65° SE 16:52:05 65° SE 16:55:36 10° SSE
Nadezhda 1 Rocket 4.0 16:51:01 49° NNE 16:52:53 75° E 16:59:22 10° S
SPOT 5 3.8 16:49:03 10° S 16:53:09 38° WSW 16:54:47 28° WNW
Cosmos 2184 Rocket 4.1 16:47:19 10° S 16:53:47 78° W 16:55:48 47° N
Cosmos 1707 Rocket 4.0 16:51:33 10° SSW 16:55:59 53° W 16:56:24 51° WNW
Cosmos 1933 Rocket 4.4 16:57:04 39° ESE 16:57:04 39° ESE 17:00:47 10° SSE
Okean 1-7 3.4 16:53:36 10° S 16:57:54 53° ESE 16:57:54 53° ESE
Cosmos 1741 Rocket 4.1 17:03:01 59° ENE 17:03:19 60° ENE 17:08:34 10° SSE
Cosmos 1703 Rocket 4.1 17:01:31 10° S 17:05:56 48° ESE 17:05:57 48° ESE
Meteor 1-21 4.2 17:02:24 10° SSW 17:08:18 82° W 17:09:29 59° N
Cosmos 972 Rocket 4.4 17:01:57 10° SSW 17:08:28 74° ESE 17:09:48 55° NE
Cosmos 1850 Rocket 3.9 17:08:50 68° NE 17:09:11 71° ENE 17:14:28 10° SSE
Cosmos 1805 3.7 17:11:32 59° SSW 17:11:32 59° SSW 17:14:48 10° S
ASTEX 1 4.0 17:13:24 44° E 17:13:54 46° ESE 17:18:43 10° S
Cosmos 1726 3.9 17:17:32 22° WSW 17:17:32 22° WSW 17:20:10 10° SSW
ATLAS 2AS CENTAUR R/B 3.6 17:20:53 28° ENE 17:20:53 28° ENE 17:26:22 10° SE
SL-14 R/B 3.8 17:20:52 10° SSW 17:24:08 54° SW 17:24:08 54° SW
Cosmos 540 Rocket 4.4 17:22:24 10° SW 17:27:02 34° W 17:27:21 34° WNW
H-2A R/B 2.6 17:24:28 10° SSE 17:28:41 81° SSE 17:28:41 81° SSE
Cosmos 1470 4.5 17:31:26 24° ESE 17:31:26 24° ESE 17:33:50 10° SSE
Terra 3.3 17:28:19 10° S 17:32:27 30° WSW 17:34:05 24° WNW
Cosmos 1697 Rocket 4.0 17:32:13 10° S 17:37:24 34° SE 17:39:53 24° E
BREEZE-M DEB (TANK) 4.1 17:23:27 10° WNW 17:37:29 82° SSW 17:41:23 10° ESE
Cosmos 2181 Rocket 4.3 17:36:23 49° NE 17:37:40 57° E 17:43:58 10° SSE
Cosmos 2341 Rocket 4.0 17:34:38 10° S 17:41:02 82° E 17:42:23 58° NNE
Cosmos 1869 Rocket 3.7 17:46:22 68° SE 17:46:22 68° SE 17:50:21 10° SSE
Nimbus 7 Rocket 4.4 17:45:34 61° NNE 17:46:44 88° E 17:52:53 10° SSW
Cosmos 2366 rocket 3.9 17:47:26 10° S 17:53:44 80° E 17:54:57 59° NNE
Cosmos 1766 4.1 17:57:11 46° SSW 17:57:11 46° SSW 18:00:09 10° S
Resurs 1-4 Rocket 4.0 17:54:45 16° E 17:57:15 23° ESE 18:01:19 10° SSE
Spot 2 4.4 17:52:49 10° SSE 17:58:00 79° WSW 17:58:26 72° NW
IDEFIX/ARIANE 42P 4.4 17:58:28 17° E 18:00:54 23° ESE 18:05:01 10° SSE
Lacrosse 4 Rocket 3.7 17:59:09 14° W 18:01:00 18° SW 18:03:49 10° S
RESURS DK-1 3.1 18:01:26 47° SW 18:01:26 47° SW 18:05:18 10° SSE
Orbus 7S? 4.3 17:56:59 10° SW 18:00:11 41° SW 18:00:11 41° SW
ARIANE 5 R/B 2.8 17:58:48 10° S 18:03:01 62° WSW 18:03:01 62° WSW
BREEZE-M DEB (TANK) 3.7 18:04:42 46° WSW 18:05:28 56° SSW 18:13:17 10° ESE
Ablestar 008 4.5 18:05:01 72° NNW 18:05:36 84° ENE 18:11:20 10° SSE
Cosmos 1980 Rocket 3.8 18:01:16 10° S 18:06:12 29° SE 18:09:55 15° ENE
Cosmos 1656 3.6 18:01:24 10° SSW 18:06:54 66° WNW 18:07:06 65° NW
Cosmos 1814 Rocket 3.8 18:01:57 10° SSW 18:07:19 82° WNW 18:07:35 79° NNW
CZ-2D R/B 3.8 18:04:58 19° ENE 18:07:33 27° ESE 18:12:10 10° S
USA 215 3.3 18:04:40 31° ENE 18:08:09 82° SE 18:14:49 10° SW
Spot 4 4.1 18:04:26 10° SSE 18:09:12 57° E 18:09:12 57° E
Cosmos 2218 Rocket 3.9 18:03:48 10° S 18:10:02 80° W 18:11:10 61° NNW
ALOS 2 3.4 18:09:00 10° SSE 18:12:53 42° E 18:12:53 42° E
MOS 1 Rocket 3.9 18:08:34 10° S 18:13:58 59° WSW 18:14:50 52° WNW
Cosmos 2360 4.2 18:08:20 10° SSW 18:14:06 78° ESE 18:15:09 60° NE
ARGOS Delta rocket 4.5 18:11:30 10° SSE 18:15:38 41° E 18:15:38 41° E
SJ 16-02 1.5 18:18:30 68° SE 18:18:30 68° SE 18:22:29 10° SSE
Cosmos 1833 Rocket 2.6 18:20:23 66° NW 18:21:12 82° WSW 18:26:55 10° SSE
IRAS Rocket 4.1 18:21:40 65° NNE 18:22:32 87° ESE 18:28:08 10° SSW
Cosmos 968 Rocket 4.2 18:23:58 41° W 18:25:01 47° WSW 18:30:09 10° S
NOSS 2-3 (C) 4.5 18:21:26 10° SW 18:29:18 89° NW 18:30:59 52° NNE
Cosmos 1400 Rocket 3.6 18:25:41 10° S 18:29:24 46° ESE 18:29:24 46° ESE
Nadezhda 3 Rocket 4.2 18:31:05 50° NNE 18:32:38 67° E 18:39:01 10° SSE
NOSS 2-3 (D) 4.5 18:27:08 10° SW 18:35:03 86° NW 18:36:45 52° NNE
Cosmos 2242 Rocket 4.5 18:32:24 10° SSW 18:36:22 40° W 18:36:22 40° W
Meteor 1-24 Rocket 3.7 18:32:59 10° S 18:38:32 69° ESE 18:39:32 56° NE
GP-B 3.4 18:34:56 10° S 18:39:11 57° WSW 18:39:11 57° WSW
Meteor 1-12 Rocket 4.2 18:38:52 63° N 18:39:53 84° E 18:45:52 10° SSE
ATLAS 3B R/B 3.7 18:37:19 10° SSW 18:43:14 39° SE 18:49:06 10° ENE
Cosmos 2082 Rocket 2.6 18:42:42 46° NE 18:43:25 49° ENE 18:48:56 10° SE
NPP 3.9 18:45:57 45° NE 18:47:28 63° ESE 18:52:52 10° S
Cosmos 1486 Rocket 4.0 18:51:44 62° NNE 18:52:22 68° ENE 18:57:43 10° SSE
MSX 4.2 18:54:17 37° NE 18:56:29 62° ESE 19:02:12 10° S
Cosmos 1908 4.2 19:01:49 39° SW 19:01:49 39° SW 19:04:50 10° S
Cosmos 1703 3.5 18:58:03 10° S 19:01:36 63° SE 19:01:36 63° SE
SL-24 DEB 4.4 18:58:11 10° S 19:02:50 57° W 19:03:04 57° W
Cosmos 1821 Rocket 4.2 18:57:16 10° SSW 19:03:25 56° W 19:04:48 47° NW
Cosmos 1908 Rocket 3.8 19:04:14 60° ENE 19:04:29 61° E 19:08:58 10° SSE
Cosmos 1378 Rocket 3.5 19:01:47 10° SSW 19:06:01 69° WSW 19:06:01 69° WSW
Cosmos 1733 Rocket 3.8 19:07:25 40° WSW 19:07:26 40° WSW 19:11:37 10° S
Meteor 2-5 Rocket 3.8 19:02:59 10° SSW 19:08:44 64° W 19:09:42 55° NW
ATLAS 2AS CENTAUR R/B 3.0 19:08:16 34° WNW 19:11:09 61° SW 19:18:02 10° SSE
Cosmos 1867 4.1 19:10:20 10° SSW 19:15:41 56° SE 19:20:02 15° NE
Cosmos 2221 Rocket 3.7 19:11:10 10° SSW 19:15:42 61° W 19:15:44 61° W
Lacrosse 5 rocket 3.6 19:15:19 10° SSW 19:18:14 22° SSE 19:21:11 10° E
Cosmos 2098 Rocket 3.5 19:20:18 38° SSE 19:20:18 38° SSE 19:22:20 10° S
ATLAS CENTAUR R/B 3.6 19:16:09 10° SSW 19:20:01 27° SE 19:23:49 10° ENE
Cosmos 1892 4.3 19:17:38 10° SSE 19:20:49 27° ESE 19:21:44 24° E
Cosmos 1697 Rocket 3.3 19:16:09 10° SW 19:21:24 39° WNW 19:21:34 39° WNW
Cosmos 2208 Rocket 4.3 19:18:01 10° SSW 19:23:11 49° WNW 19:23:36 47° WNW
ADEOS II 2.1 19:23:16 41° NNE 19:25:08 77° ESE 19:30:28 10° S
Cosmos 1503 Rocket 3.9 19:29:03 56° NNW 19:30:11 89° E 19:35:27 10° SSE
Cosmos 1900 4.2 19:26:43 10° SW 19:31:35 68° WNW 19:32:10 61° NNW
Cosmos 1825 3.8 19:29:39 10° SSE 19:32:48 27° ESE 19:34:02 22° ENE
BREEZE-M DEB (TANK) 3.5 19:33:26 10° SW 19:35:34 24° S 19:37:27 10° ESE
Cosmos 1340 3.2 19:36:50 46° SW 19:36:50 46° SW 19:39:59 10° S
Resurs 1-4 Rocket 2.3 19:35:48 47° NW 19:36:40 52° W 19:41:53 10° SSW
Cosmos 1356 Rocket 4.4 19:33:36 10° SSW 19:37:06 33° W 19:37:06 33° W
ALOS 3.5 19:34:57 16° NE 19:38:10 38° ESE 19:42:32 10° S
Cosmos 1300 3.1 19:39:19 50° WSW 19:39:19 50° WSW 19:42:46 10° S
IDEFIX/ARIANE 42P 2.8 19:39:13 45° NW 19:40:05 50° W 19:45:15 10° SSW
Cosmos 1354 Rocket 3.9 19:39:40 50° NNW 19:41:06 85° ENE 19:46:26 10° SSE
Cosmos 1300 Rocket 4.0 19:40:29 43° NNE 19:41:37 58° E 19:46:04 10° SSE
SL-16 R/B 3.5 19:36:40 10° SSW 19:42:02 39° ESE 19:47:20 10° NE
COSMOS 2406 3.4 19:41:23 40° NW 19:43:20 61° WSW 19:49:06 10° SSE
Cosmos 1455 3.4 19:43:01 28° ENE 19:43:49 32° E 19:47:08 10° SSE
CZ-2D R/B 2.6 19:46:15 40° NW 19:47:18 45° W 19:52:38 10° SSW
ALOS 2 4.4 19:46:04 10° SSW 19:49:17 20° WSW 19:50:17 18° W
Cosmos 1980 Rocket 2.5 19:44:57 10° SW 19:50:24 48° WNW 19:51:37 41° NW
Cosmos 2369 3.8 19:45:36 10° SSW 19:51:11 56° WNW 19:52:51 41° NNW
USA 215 4.1 19:51:57 29° WNW 19:51:57 29° WNW 19:57:11 10° WSW
NOSS 3-1 (A) 3.5 19:45:25 10° SSW 19:51:55 69° SE 19:57:10 10° NE
DNEPR-1 R/B 4.3 19:51:37 37° NNE 19:52:34 42° ENE 19:56:32 10° SE
NOSS 3-1 (C) 3.2 19:46:58 10° SW 19:53:09 61° WNW 19:55:10 37° N
Cosmos 1025 Rocket 3.0 19:49:51 10° SSW 19:54:19 72° W 19:55:14 53° NNW
Cosmos 773 Rocket 4.0 19:49:18 10° SSW 19:54:37 66° WNW 19:56:27 40° N
Helios 1A Rocket 3.7 19:53:01 10° S 19:56:41 36° WSW 19:57:09 34° W
SJ 16-02 3.8 19:55:20 10° WSW 19:57:03 12° SW 19:58:47 10° SSW
Cosmos 1408 4.1 19:59:49 10° SW 20:01:34 21° WSW 20:01:34 21° WSW
USA 306 2.4 20:07:21 59° W 20:07:47 69° SW 20:11:26 10° SE
FENGYUN 3A 3.6 20:06:46 32° N 20:09:21 70° WNW 20:14:49 10° SSW
USA 281 4.4 20:03:31 10° NE 20:09:38 43° SE 20:15:48 10° SSW
AQUA 4.3 20:10:47 38° NW 20:11:50 44° W 20:16:26 10° SSW
Cosmos 371 Rocket 3.3 20:11:15 37° N 20:13:13 80° ENE 20:18:10 10° SSE
Cosmos 1782 Rocket 4.1 20:13:51 36° WNW 20:15:01 45° WSW 20:19:24 10° S
ISS -3.9 20:15:24 66° NNW 20:15:45 75° NE 20:19:10 10° ESE
Cosmos 1727 Rocket 4.0 20:15:28 26° N 20:19:13 87° E 20:25:33 10° S
Cosmos 1953 3.0 20:18:34 35° WNW 20:19:16 38° WSW 20:23:02 10° S
Okean 2 Rocket 3.9 20:22:25 19° NNE 20:25:23 48° E 20:29:44 10° SSE
Cosmos 1633 4.1 20:24:22 10° SW 20:25:53 18° WSW 20:25:53 18° WSW
Cosmos 2278 3.7 20:21:53 10° SSW 20:27:35 65° WNW 20:32:21 15° N
Cosmos 2082 Rocket 3.6 20:24:32 17° W 20:27:44 28° SW 20:32:40 10° S
Cosmos 44 Rocket 3.8 20:27:25 27° WNW 20:29:36 47° SW 20:34:07 10° SSE
Cosmos 1315 Rocket 3.7 20:28:14 10° SSW 20:31:49 31° W 20:32:23 30° WNW
Genesis I 3.4 20:29:14 10° SW 20:32:47 42° WNW 20:33:14 40° NW
Cosmos 1605 Rocket 4.5 20:28:07 10° SSW 20:33:49 41° W 20:36:48 25° NW
ATLAS 3B R/B 2.8 20:28:00 10° SW 20:33:55 44° WNW 20:39:09 13° N
Cosmos 1328 4.4 20:31:04 10° SSW 20:34:45 38° W 20:35:41 33° NW
COBE Rocket 4.3 20:31:10 10° NNE 20:35:46 60° ESE 20:40:26 10° S
Cosmos 2237 4.2 20:30:13 10° SSW 20:36:00 83° WNW 20:41:45 10° NNE
Cosmos 1975 Rocket 3.7 20:32:20 10° SSW 20:36:26 39° W 20:37:52 30° NW
CZ-2C R/B 3.4 20:38:01 21° N 20:41:41 56° W 20:47:24 10° SSW
Cosmos 2173 Rocket 4.0 20:37:35 10° S 20:43:48 86° E 20:49:56 10° N
Tiangong -0.5 20:45:21 21° NNE 20:45:34 21° NNE 20:48:04 10° ENE
Cosmos 1538 Rocket 4.0 20:41:32 10° SSW 20:47:00 80° WNW 20:52:23 10° NNE
Okean 1 Rocket 4.0 20:42:59 11° NNE 20:47:06 47° E 20:51:27 10° SSE
Cosmos 2360 Rocket 2.8 20:42:33 10° SSW 20:48:12 61° ESE 20:53:49 10° NE
SL-8 R/B 4.4 20:46:26 23° NNW 20:48:54 41° NE 20:53:27 10° ESE
MOZ.5/SAFIR/RUBIN 5/SL-8 3.8 20:44:52 10° S 20:49:38 76° WSW 20:52:42 21° NNW
Meteor 1-11 4.2 20:44:05 10° SSW 20:49:57 75° W 20:55:41 10° N
In-Cosmos 22 Rocket 4.3 20:46:41 10° SSW 20:52:34 68° W 20:58:06 11° N
Cosmos 1802 Rocket 4.2 20:46:24 10° S 20:52:53 76° E 20:59:11 10° NNE
Cosmos 2100 Rocket 3.9 20:47:15 10° S 20:53:29 77° W 20:59:40 10° N
Cosmos 2219 Rocket 3.9 20:49:55 10° S 20:55:06 35° SE 21:00:14 10° ENE
Cosmos 1536 Rocket 3.6 20:50:49 10° S 20:55:24 87° E 20:59:54 10° N
Cosmos 1892 4.2 20:53:01 10° SW 20:55:35 18° W 20:55:59 18° W
Lacrosse 5 rocket 1.0 20:53:24 10° SW 20:57:03 60° NW 21:00:46 10° NNE
CZ-2C R/B 2.5 20:52:38 10° NNE 20:57:50 83° WNW 21:03:02 10° SSW
ATLAS CENTAUR R/B 1.9 20:54:02 10° SW 20:58:12 39° WNW 21:02:14 10° N
NOAA 11 4.4 20:54:24 10° NNE 20:59:54 75° ESE 21:05:28 10° S
Cosmos 2151 Rocket 3.7 21:00:09 19° NNW 21:03:19 65° W 21:07:54 10° S
Cosmos 2322 Rocket 2.1 20:58:49 10° SSW 21:04:29 76° WNW 21:10:06 10° NNE
ADEOS II 3.9 21:04:09 13° WNW 21:05:22 14° W 21:08:04 10° WSW
Thor Agena Rocket 4.2 21:02:29 18° NNW 21:05:46 36° W 21:10:34 10° SSW
Meteor 1-4 Rocket 3.1 21:03:14 10° SSW 21:06:11 32° W 21:07:28 23° NW
CBERS-1 4.5 21:01:58 10° NNE 21:07:01 64° ESE 21:12:09 10° S
Cosmos 1825 3.7 21:04:48 10° SW 21:07:15 17° W 21:07:58 17° WNW
SL-27 R/B 3.6 21:05:28 11° NNE 21:08:06 32° ENE 21:10:56 10° SE
Cosmos 2333 Rocket 2.5 21:04:39 10° SSW 21:10:22 73° ESE 21:16:03 10° NNE
Cosmos 1484 Rocket 4.4 21:07:19 10° NE 21:10:44 35° ESE 21:14:10 10° S
Cosmos 1833 4.3 21:07:16 15° NNW 21:12:14 85° ENE 21:18:04 10° SSE
Cosmos 1725 Rocket 4.1 21:05:49 10° S 21:12:16 86° E 21:18:37 10° N
USA 307 3.6 21:13:44 11° WSW 21:15:17 19° SSW 21:17:02 10° SSE
ALOS 3.5 21:13:19 17° NW 21:15:32 23° W 21:19:19 10° SW
USA 305 3.4 21:14:32 12° WSW 21:15:42 17° SSW 21:17:09 10° SSE
IRIDIUM 106 4.4 21:11:30 10° S 21:16:50 83° E 21:22:06 10° N
YAOGAN 6 2.3 21:15:21 10° N 21:18:41 70° W 21:22:05 10° SSW
Cosmos 1455 4.0 21:17:10 13° W 21:18:46 16° WSW 21:21:11 10° SSW
BREEZE-M DEB (TANK) 2.5 21:17:38 10° WSW 21:19:11 56° SSE 21:23:54 10° E
PAYLOAD A 4.1 21:20:15 10° N 21:24:53 49° W 21:29:30 10° SSW
SL-16 R/B 2.9 21:20:58 10° SW 21:26:00 33° WNW 21:31:01 10° NNW
SL-08 R/B 4.5 21:21:07 10° S 21:27:19 83° W 21:33:31 10° N
USA 229 DEB 3.5 21:23:49 10° SW 21:30:18 61° WNW 21:36:17 10° NNE
USA 229 3.5 21:23:52 10° SW 21:30:22 62° WNW 21:36:22 10° NNE
SL-16 R/B 3.1 21:25:19 10° SSE 21:31:31 61° ENE 21:37:36 10° N
CZ-2C R/B 3.5 21:26:14 10° SSE 21:31:39 53° E 21:37:06 10° N
Cosmos 332 Rocket 4.3 21:28:58 13° NW 21:33:07 46° WSW 21:37:50 10° S
Envisat 3.4 21:28:51 10° N 21:33:40 42° W 21:38:34 10° SSW
Cosmos 1455 Rocket 3.5 21:32:42 10° N 21:37:01 63° E 21:41:23 10° SSE
Cosmos 1346 Rocket 2.7 21:34:07 10° N 21:37:59 87° WSW 21:41:56 10° S
Cosmos 923 Rocket 4.1 21:37:40 10° SSW 21:42:52 59° WNW 21:48:01 10° N
Cosmos 1441 Rocket 4.2 21:39:44 11° NW 21:43:07 32° WSW 21:46:40 10° S
Cosmos 1898 Rocket 4.0 21:38:30 10° NW 21:43:30 47° WSW 21:48:40 10° S
Cosmos 1242 Rocket 2.5 21:42:44 10° SSW 21:45:57 50° W 21:49:08 10° N
Cosmos 2333 4.2 21:42:14 10° SSW 21:47:52 68° WNW 21:53:27 10° NNE
Cosmos 2322 4.4 21:44:39 10° SSW 21:50:24 63° ESE 21:56:06 10° NE
H-2A R/B 2.9 21:45:38 10° NNE 21:50:43 57° ESE 21:55:59 10° S
ISS -1.9 21:49:50 10° WSW 21:52:47 26° SSW 21:55:46 10° SE
USA 281 3.7 21:48:00 10° N 21:54:06 40° WNW 22:00:17 10° SW
Cosmos 1937 Rocket 3.9 21:50:12 10° NW 21:55:13 50° WSW 22:00:17 10° S
H-2A R/B 2.8 21:53:40 10° NNE 21:57:10 73° ESE 22:00:43 10° S
Cosmos 1680 Rocket 3.7 21:54:51 10° SSW 22:00:06 57° WNW 22:05:19 10° N
SL-19 R/B 4.3 21:54:53 10° NNE 22:00:07 81° ESE 22:05:36 10° SSW
IRS-P3 4.5 21:56:39 10° NNE 22:02:00 77° ESE 22:07:26 10° S
USA 32 4.3 21:57:08 10° NNW 22:02:18 56° W 22:07:32 10° S
